[[{"header":{"parameterUnit":"m.s-1","parameterCategory":1,"la1":30.2991,"la2":30.254,"lo1":-89.0895,"lo2":-89.0444,"dy":0.0017,"dx":0.0017,"nx":28,"ny":28,"refTime":"2024-08-20T21:00:00:Z","depth":0,"parameterNumber":2,"parameterNumberName":"U-component_of_WINDS"},"data":[0,0,0,0,0,0,0,0,0,0,0,0,0,0,0,0,0,0,0,0,0,0,0,0,0,0,0,0,0,0,0,0,0,0,0,0,0,0,0,0,0,0,0,0,0,0,0,0,0,0,0,0,0,0,0,0,0,0,-1.6165,-1.6166,0,-1.6203,-1.6203,-1.6204,-1.6195,-1.6195,-1.6194,-1.6193,-1.623,-1.6231,-1.6233,0,0,0,0,0,0,0,0,0,0,0,0,0,-1.6085,-1.6086,-1.6165,-1.6166,-1.6166,-1.6203,-1.6203,-1.6204,-1.6195,-1.6194,-1.6194,-1.6193,-1.6229,-1.6231,-1.6233,0,0,0,0,0,0,0,0,0,0,0,0,0,-1.6121,-1.6087,-1.6165,-1.6166,-1.6167,-1.6203,-1.6203,-1.6204,-1.6196,-1.6194,-1.6193,-1.6192,-1.6228,-1.6231,-1.6233,-1.6269,0,0,-1.6241,-1.6242,0,0,0,0,0,0,0,0,-1.6118,-1.6123,-1.6166,-1.6166,-1.6167,-1.6193,-1.6188,-1.6226,-1.6196,-1.6185,-1.6193,-1.6192,-1.6218,-1.6221,-1.6231,-1.6271,-1.6273,-1.6241,-1.6242,-1.6243,-1.6244,0,0,0,0,0,0,0,-1.6116,-1.6122,-1.618,-1.6166,-1.6167,-1.6165,-1.6169,-1.6195,-1.6207,-1.6185,-1.6185,-1.619,-1.6218,-1.6228,-1.6232,-1.6273,-1.6241,-1.6243,-1.6244,-1.6245,-1.6345,-1.6347,0,0,0,0,0,0,-1.6113,-1.612,-1.6179,-1.6181,-1.614,-1.6167,-1.6171,-1.6186,-1.6207,-1.6209,-1.6191,-1.6189,-1.6225,-1.6229,-1.6233,-1.6277,-1.6243,-1.6246,-1.6247,-1.6344,-1.6346,-1.6347,0,0,0,0,0,0,-1.6112,-1.6119,-1.6177,-1.615,-1.6158,-1.6169,-1.6186,-1.6187,-1.6197,-1.621,-1.6212,-1.6199,-1.6224,-1.6229,-1.6261,-1.6278,-1.6247,-1.6249,-1.6343,-1.6345,-1.6346,-1.6366,0,0,0,0,0,0,-1.6109,-1.6118,-1.6132,-1.6151,-1.6159,-1.6205,-1.6187,-1.6189,-1.6202,-1.62,-1.6219,-1.6221,-1.6224,-1.6257,-1.6263,-1.6281,-1.6251,-1.6341,-1.6344,-1.6346,-1.6364,-1.6368,-1.6372,0,0,0,0,0,-1.6106,-1.6136,-1.6133,-1.614,-1.6177,-1.6206,-1.6211,-1.6214,-1.6203,-1.6217,-1.6226,-1.622,-1.6275,-1.626,-1.6267,-1.6286,-1.634,-1.6343,-1.6346,-1.6362,-1.6367,-1.6372,0,0,0,0,0,0,-1.6118,-1.6138,-1.6135,-1.6172,-1.6187,-1.6205,-1.6223,-1.622,-1.6239,-1.6236,-1.6239,-1.6243,-1.6275,-1.6284,-1.6267,-1.6322,-1.6306,-1.631,-1.6316,-1.6321,-1.6325,-1.6323,-1.6253,0,0,0,0,0,-1.6125,-1.6147,-1.6163,-1.6194,-1.6202,-1.6211,-1.6224,-1.6225,-1.6241,-1.6248,-1.6258,-1.6274,-1.6294,-1.6308,-1.6328,-1.6364,-1.6368,-1.6381,-1.6385,-1.6388,-1.6392,-1.6412,-1.6418,-1.6356,-1.6356,-1.6356,0,0,-1.6139,-1.6153,-1.6167,-1.6196,-1.6209,-1.6232,-1.6217,-1.6241,-1.6258,-1.6251,-1.6282,-1.629,-1.6307,-1.6342,-1.6357,-1.6349,-1.641,-1.6391,-1.6394,-1.6396,-1.6416,-1.6421,-1.6427,-1.6358,-1.6357,-1.6357,0,0,-1.6177,-1.619,-1.6217,-1.623,-1.6249,-1.6255,-1.6261,-1.6279,-1.6285,-1.6316,-1.6311,-1.6331,-1.6366,-1.6379,-1.639,-1.6433,-1.6429,-1.644,-1.6461,-1.6481,-1.6486,-1.649,-1.6506,-1.6512,-1.6443,-1.6443,-1.6443,0,-1.6192,-1.6227,-1.6231,-1.6256,-1.627,-1.6265,-1.6292,-1.6304,-1.6329,-1.6338,-1.6329,-1.6374,-1.6385,-1.6423,-1.6433,-1.6442,-1.645,-1.6438,-1.6485,-1.6489,-1.6494,-1.6509,-1.6515,-1.6444,-1.6444,-1.6444,-1.6444,0,-1.6245,-1.627,-1.6289,-1.6314,-1.6329,-1.6355,-1.6362,-1.6377,-1.6377,-1.6384,-1.6416,-1.6429,-1.6452,-1.646,-1.646,-1.6498,-1.6493,-1.6484,-1.6468,-1.6501,-1.6515,-1.6521,-1.6446,-1.6446,-1.6445,-1.6445,0,0,-1.6292,-1.6319,-1.6326,-1.6338,-1.6359,-1.6377,-1.6403,-1.6426,-1.6439,-1.6455,-1.6477,-1.6508,-1.65,-1.6513,-1.6514,-1.6531,-1.6566,-1.6521,-1.6521,-1.6529,-1.6609,-1.6615,-1.6622,-1.6562,-1.6563,-1.6564,-1.6607,0,-1.6333,-1.6379,-1.6383,-1.6425,-1.6448,-1.6444,-1.6466,-1.6481,-1.6488,-1.6508,-1.6515,-1.6537,-1.6525,-1.6533,-1.655,-1.6558,-1.6582,-1.6555,-1.6583,-1.6584,-1.6579,-1.663,-1.6637,-1.6677,-1.6613,-1.6614,-1.6615,0,-1.6386,-1.6406,-1.645,-1.6469,-1.6478,-1.6498,-1.652,-1.6539,-1.6556,-1.6559,-1.6574,-1.6573,-1.6599,-1.6581,-1.6617,-1.6599,-1.661,-1.6616,-1.6618,-1.6621,-1.6602,-1.6635,-1.6689,-1.6696,-1.6623,-1.6623,-1.6622,0,-1.6417,-1.6454,-1.6486,-1.6495,-1.6517,-1.6532,-1.6542,-1.6557,-1.6571,-1.659,-1.6599,-1.662,-1.6631,-1.6647,-1.6652,-1.6638,-1.6688,-1.667,-1.6692,-1.6692,-1.6703,-1.6702,-1.6761,-1.6709,-1.6709,-1.6709,-1.6709,0,-1.6462,-1.649,-1.65,-1.6519,-1.655,-1.6554,-1.6584,-1.6592,-1.6607,-1.6627,-1.6624,-1.6644,-1.6648,-1.6668,-1.6672,-1.6701,-1.6706,-1.671,-1.6711,-1.6711,-1.671,-1.6719,-1.6716,-1.671,-1.671,-1.671,-1.671,0,-1.6502,-1.651,-1.6544,-1.6563,-1.6568,-1.6589,-1.6605,-1.6623,-1.663,-1.6656,-1.6662,-1.6672,-1.6696,-1.6702,-1.6729,-1.6732,-1.6767,-1.6765,-1.6762,-1.6762,-1.6783,-1.6781,-1.685,-1.6859,-1.6801,-1.6801,-1.6802,0,-1.6531,-1.6552,-1.6573,-1.6587,-1.6598,-1.662,-1.6635,-1.6639,-1.6654,-1.6675,-1.6691,-1.6714,-1.6733,-1.6771,-1.678,-1.6801,-1.68,-1.6823,-1.6803,-1.6803,-1.6801,-1.68,-1.6803,-1.6826,-1.6827,-1.6828,-1.6828,0,-1.6581,-1.6585,-1.6606,-1.6629,-1.6646,-1.6664,-1.6681,-1.6692,-1.6699,-1.6716,-1.674,-1.6755,-1.6784,-1.6807,-1.6829,-1.6838,-1.6834,-1.6834,-1.684,-1.6841,-1.6839,-1.6841,-1.6773,-1.6833,-1.6832,-1.6832,-1.6831,-1.6831,-1.6617,-1.6636,-1.6654,-1.6678,-1.6691,-1.6707,-1.6726,-1.6735,-1.6756,-1.678,-1.6781,-1.6808,-1.6824,-1.6853,-1.6863,-1.6884,-1.6877,-1.6886,-1.6888,-1.689,-1.6893,-1.6835,-1.6888,-1.6888,-1.6888,-1.6887,-1.6887,0,-1.6668,-1.668,-1.6702,-1.6726,-1.6745,-1.674,-1.6759,-1.6775,-1.6799,-1.6814,-1.6833,-1.6862,-1.6884,-1.6895,-1.6918,-1.6932,-1.6931,-1.6938,-1.6937,-1.6939,-1.6897,-1.689,-1.6938,-1.6938,-1.6938,-1.6938,-1.6938,-1.6938,-1.6697,-1.6729,-1.6734,-1.6773,-1.6784,-1.6811,-1.6822,-1.6837,-1.6849,-1.6881,-1.6901,-1.6908,-1.6922,-1.6945,-1.6966,-1.6968,-1.6977,-1.6985,-1.6987,-1.6947,-1.6942,-1.6937,-1.6931,-1.6986,-1.6986,-1.7027,-1.7027,-1.7028]},{"header":{"parameterUnit":"m.s-1","parameterCategory":1,"la1":30.2991,"la2":30.254,"lo1":-89.0895,"lo2":-89.0444,"dy":0.0017,"dx":0.0017,"nx":28,"ny":28,"refTime":"2024-08-20T21:00:00:Z","depth":0,"parameterNumber":3,"parameterNumberName":"V-component_of_WINDS"},"data":[0,0,0,0,0,0,0,0,0,0,0,0,0,0,0,0,0,0,0,0,0,0,0,0,0,0,0,0,0,0,0,0,0,0,0,0,0,0,0,0,0,0,0,0,0,0,0,0,0,0,0,0,0,0,0,0,0,0,-2.616,-2.616,0,-2.6219,-2.622,-2.622,-2.6214,-2.6213,-2.6212,-2.6211,-2.6273,-2.6275,-2.6278,0,0,0,0,0,0,0,0,0,0,0,0,0,-2.6043,-2.6045,-2.616,-2.6161,-2.6161,-2.6219,-2.622,-2.622,-2.6214,-2.6213,-2.6212,-2.6211,-2.6272,-2.6275,-2.6278,0,0,0,0,0,0,0,0,0,0,0,0,0,-2.6097,-2.6046,-2.616,-2.6165,-2.6166,-2.6219,-2.622,-2.6221,-2.6214,-2.6213,-2.6212,-2.621,-2.6271,-2.6275,-2.6278,-2.633,0,0,-2.629,-2.6292,0,0,0,0,0,0,0,0,-2.6094,-2.6101,-2.6163,-2.6165,-2.6166,-2.6208,-2.6201,-2.6257,-2.6215,-2.6196,-2.6211,-2.621,-2.6252,-2.6258,-2.6272,-2.6333,-2.6335,-2.629,-2.6293,-2.6294,-2.6295,0,0,0,0,0,0,0,-2.609,-2.6099,-2.6183,-2.6164,-2.6166,-2.6165,-2.6171,-2.6212,-2.6231,-2.6198,-2.6197,-2.6204,-2.6253,-2.6268,-2.6273,-2.6336,-2.629,-2.6294,-2.6296,-2.6297,-2.6443,-2.6445,0,0,0,0,0,0,-2.6085,-2.6096,-2.6181,-2.6185,-2.6126,-2.6168,-2.6175,-2.6196,-2.6231,-2.6235,-2.6205,-2.6204,-2.6262,-2.6269,-2.6275,-2.6338,-2.6294,-2.6298,-2.63,-2.6442,-2.6444,-2.6445,0,0,0,0,0,0,-2.6083,-2.6093,-2.6179,-2.614,-2.6151,-2.6172,-2.6195,-2.6198,-2.6213,-2.6237,-2.624,-2.6217,-2.6262,-2.627,-2.6317,-2.634,-2.6299,-2.6303,-2.644,-2.6442,-2.6445,-2.6465,0,0,0,0,0,0,-2.6079,-2.6092,-2.6111,-2.6141,-2.6153,-2.6219,-2.6196,-2.62,-2.6219,-2.6218,-2.6249,-2.6253,-2.6261,-2.6311,-2.632,-2.6345,-2.6306,-2.6438,-2.6441,-2.6444,-2.6462,-2.6467,-2.6472,0,0,0,0,0,-2.6075,-2.6115,-2.6112,-2.6123,-2.6178,-2.622,-2.6227,-2.6236,-2.6221,-2.6241,-2.6257,-2.6252,-2.6336,-2.6316,-2.6326,-2.6352,-2.6436,-2.644,-2.6444,-2.646,-2.6466,-2.6472,0,0,0,0,0,0,-2.6087,-2.6118,-2.6116,-2.6166,-2.6191,-2.6219,-2.6244,-2.6242,-2.6271,-2.6269,-2.6278,-2.6285,-2.6332,-2.6347,-2.6323,-2.6404,-2.6384,-2.639,-2.6393,-2.64,-2.6405,-2.64,-2.6309,0,0,0,0,0,-2.6096,-2.6127,-2.6153,-2.6194,-2.6207,-2.6223,-2.6242,-2.6246,-2.6272,-2.6282,-2.6301,-2.6327,-2.6359,-2.638,-2.6411,-2.6464,-2.6471,-2.6487,-2.6492,-2.6496,-2.6501,-2.6531,-2.6539,-2.6457,-2.6457,-2.6457,0,0,-2.6114,-2.6135,-2.6154,-2.6197,-2.6217,-2.625,-2.6232,-2.6267,-2.6292,-2.6288,-2.6333,-2.6348,-2.6377,-2.6427,-2.645,-2.6441,-2.6525,-2.6501,-2.6504,-2.6507,-2.6536,-2.6543,-2.655,-2.646,-2.6459,-2.6459,0,0,-2.6163,-2.6182,-2.6219,-2.6239,-2.6268,-2.6279,-2.6288,-2.6317,-2.6327,-2.6372,-2.637,-2.6399,-2.6455,-2.6476,-2.6494,-2.6552,-2.6549,-2.6562,-2.6589,-2.6617,-2.6624,-2.663,-2.6651,-2.6658,-2.6567,-2.6567,-2.6567,0,-2.6182,-2.623,-2.6238,-2.6274,-2.6294,-2.6292,-2.633,-2.6349,-2.6387,-2.6401,-2.639,-2.6459,-2.6479,-2.6534,-2.6548,-2.6563,-2.6574,-2.6558,-2.6622,-2.6628,-2.6634,-2.6654,-2.6662,-2.6568,-2.6568,-2.6568,-2.6568,0,-2.6252,-2.6286,-2.6313,-2.635,-2.6372,-2.6409,-2.6423,-2.6445,-2.6448,-2.646,-2.6507,-2.653,-2.6566,-2.6579,-2.6582,-2.6635,-2.6629,-2.662,-2.66,-2.6643,-2.6662,-2.667,-2.657,-2.657,-2.6569,-2.6569,0,0,-2.631,-2.6352,-2.6361,-2.6378,-2.6411,-2.6438,-2.6475,-2.651,-2.6529,-2.6555,-2.6587,-2.6634,-2.6627,-2.6647,-2.6652,-2.6678,-2.6723,-2.6666,-2.6667,-2.6676,-2.6784,-2.679,-2.6799,-2.6721,-2.6723,-2.6724,-2.6781,0,-2.6363,-2.6428,-2.6437,-2.6495,-2.6527,-2.6526,-2.6558,-2.6582,-2.6595,-2.6624,-2.6638,-2.6672,-2.6659,-2.6671,-2.6696,-2.6712,-2.6745,-2.6708,-2.6751,-2.6753,-2.6744,-2.6809,-2.6816,-2.6869,-2.6789,-2.679,-2.6791,0,-2.6433,-2.6462,-2.6523,-2.6552,-2.6566,-2.6595,-2.6628,-2.6656,-2.6683,-2.6691,-2.6714,-2.6716,-2.6755,-2.6734,-2.6788,-2.6763,-2.6781,-2.6792,-2.6794,-2.6799,-2.6774,-2.6816,-2.6886,-2.6894,-2.6803,-2.6802,-2.6801,0,-2.647,-2.6524,-2.6568,-2.6582,-2.6617,-2.6638,-2.6653,-2.6679,-2.67,-2.6729,-2.6743,-2.6776,-2.6795,-2.6821,-2.6833,-2.6816,-2.6886,-2.6866,-2.6894,-2.6894,-2.6909,-2.6908,-2.6984,-2.6921,-2.692,-2.692,-2.692,0,-2.6529,-2.6566,-2.6585,-2.6612,-2.6654,-2.6664,-2.6706,-2.6721,-2.6744,-2.6774,-2.6775,-2.6804,-2.6817,-2.6848,-2.6857,-2.6901,-2.691,-2.6917,-2.6919,-2.6917,-2.6916,-2.6929,-2.6926,-2.6922,-2.6922,-2.6921,-2.6921,0,-2.6577,-2.6591,-2.6638,-2.6668,-2.6676,-2.6706,-2.6731,-2.6758,-2.677,-2.6809,-2.6818,-2.6838,-2.6875,-2.6889,-2.6933,-2.6939,-2.699,-2.6989,-2.6981,-2.6981,-2.7009,-2.7006,-2.7096,-2.7108,-2.7037,-2.7037,-2.7038,0,-2.6613,-2.6642,-2.6674,-2.6695,-2.6711,-2.6743,-2.6765,-2.6776,-2.6798,-2.6832,-2.6854,-2.689,-2.692,-2.6978,-2.6997,-2.7031,-2.7031,-2.706,-2.7036,-2.7033,-2.7032,-2.703,-2.7033,-2.7065,-2.7065,-2.7066,-2.7066,0,-2.6676,-2.6682,-2.6712,-2.6745,-2.6771,-2.6797,-2.6823,-2.684,-2.6855,-2.688,-2.6917,-2.694,-2.6986,-2.7022,-2.7057,-2.7073,-2.7073,-2.7074,-2.7082,-2.708,-2.7074,-2.7078,-2.6993,-2.7072,-2.7071,-2.7071,-2.707,-2.707,-2.672,-2.6745,-2.6773,-2.6807,-2.6827,-2.6852,-2.6878,-2.6894,-2.6925,-2.6963,-2.6968,-2.7008,-2.7035,-2.7083,-2.7101,-2.7132,-2.7125,-2.7137,-2.714,-2.7143,-2.7145,-2.7069,-2.7139,-2.7139,-2.7139,-2.7139,-2.7138,0,-2.6783,-2.68,-2.6832,-2.6868,-2.6895,-2.6892,-2.6921,-2.6944,-2.6979,-2.7004,-2.7033,-2.7076,-2.7112,-2.7133,-2.7169,-2.719,-2.7191,-2.7199,-2.7198,-2.7202,-2.715,-2.7139,-2.7198,-2.7198,-2.7198,-2.7198,-2.7198,-2.7198,-2.6819,-2.6863,-2.6872,-2.6926,-2.6944,-2.6983,-2.6999,-2.7022,-2.7043,-2.7091,-2.712,-2.7134,-2.7158,-2.7196,-2.7228,-2.7233,-2.7247,-2.7256,-2.7261,-2.7212,-2.7205,-2.7199,-2.7189,-2.7258,-2.7258,-2.731,-2.7311,-2.7311]}]]